Weather History for KBKX - October, 2012

Change the Weather History Date:

Wednesday, October 10, 2012

  Actual Average Record
Temperature  
Mean Temperature 42 °F -  
Max Temperature 60 °F 58 °F 75 °F (2010)
Min Temperature 24 °F 36 °F 24 °F (2012)
Degree Days  
Heating Degree Days 23    
Moisture  
Dew Point 26 °F    
Average Humidity 53    
Maximum Humidity 93    
Minimum Humidity 26    
Precipitation  
Precipitation 0.00 in - - ()
Sea Level Pressure  
Sea Level Pressure 30.02 in    
Wind  
Wind Speed 8 mph (SW)    
Max Wind Speed 17 mph    
Max Gust Speed 24 mph    
Visibility 10 miles    
Events      
Averages and records for this station are not official NWS values.
T = Trace of Precipitation, MM = Missing Value Source: NWS Daily Summary

Daily Weather History Graph

Daily Weather History Graph

Search for Another Location

Airport or City:

Trip Planner

Search our weather history database for the weather conditions in past years. The results will help you decide how hot, cold, wet, or windy it might be!

Date:

Astronomy

Oct. 10, 2012 Rise Set
Actual Time 7:36 AM CDT 6:50 PM CDT
Civil Twilight 7:07 AM CDT 7:19 PM CDT
Nautical Twilight 6:33 AM CDT 7:53 PM CDT
Astronomical Twilight 6:00 AM CDT 8:27 PM CDT
Moon 2:02 AM CDT (10/10) 4:03 PM CDT (10/10)
Length of Visible Light 12h 12m
Length of Day
11h 14m
Waning Crescent, 27% of the Moon is Illuminated
Oct 10
Waning Crescent
Oct 15
New
Oct 21
First Quarter
Oct 29
Full
Nov 6
Last Quarter

Hourly Weather History & Observations

Time (CDT) Temp. Windchill Dew Point Humidity Pressure Visibility Wind Dir Wind Speed Gust Speed Precip Events Conditions
12:15 AM 39.2 °F 35.9 °F 24.8 °F 56% 30.08 in 10.0 mi West 4.6 mph - N/A   Overcast
12:35 AM 37.4 °F 32.1 °F 24.8 °F 60% 30.08 in 10.0 mi West 6.9 mph - N/A   Overcast
12:55 AM 37.4 °F 32.1 °F 24.8 °F 60% 30.08 in 10.0 mi West 6.9 mph - N/A   Overcast
1:15 AM 37.4 °F 31.4 °F 24.8 °F 60% 30.08 in 10.0 mi WSW 8.1 mph - N/A   Overcast
1:35 AM 37.4 °F 30.8 °F 24.8 °F 60% 30.09 in 10.0 mi West 9.2 mph - N/A   Overcast
1:55 AM 35.6 °F 29.2 °F 24.8 °F 65% 30.09 in 10.0 mi WSW 8.1 mph - N/A   Overcast
2:15 AM 35.6 °F 29.2 °F 24.8 °F 65% 30.10 in 10.0 mi WSW 8.1 mph - N/A   Overcast
2:35 AM 33.8 °F 27.0 °F 24.8 °F 70% 30.10 in 10.0 mi West 8.1 mph - N/A   Partly Cloudy
2:55 AM 30.2 °F 23.4 °F 24.8 °F 80% 30.10 in 10.0 mi West 6.9 mph - N/A   Clear
3:15 AM 30.2 °F 24.3 °F 24.8 °F 80% 30.10 in 10.0 mi WNW 5.8 mph - N/A   Clear
3:35 AM 28.4 °F 21.2 °F 23.0 °F 80% 30.09 in 10.0 mi NW 6.9 mph - N/A   Clear
3:55 AM 28.4 °F 22.2 °F 24.8 °F 86% 30.09 in 10.0 mi WNW 5.8 mph - N/A   Clear
4:15 AM 28.4 °F 21.2 °F 24.8 °F 86% 30.09 in 10.0 mi SSW 6.9 mph - N/A   Clear
4:35 AM 28.4 °F 21.2 °F 23.0 °F 80% 30.10 in 10.0 mi WSW 6.9 mph - N/A   Clear
4:55 AM 28.4 °F 21.2 °F 24.8 °F 86% 30.10 in 10.0 mi WSW 6.9 mph - N/A   Clear
5:15 AM 26.6 °F 19.1 °F 24.8 °F 93% 30.11 in 10.0 mi WSW 6.9 mph - N/A   Clear
5:35 AM 28.4 °F - 24.8 °F 86% 30.11 in 10.0 mi North - - N/A   Clear
5:55 AM 26.6 °F 19.1 °F 24.8 °F 93% 30.11 in 10.0 mi WSW 6.9 mph - N/A   Clear
6:15 AM 26.6 °F 18.2 °F 24.8 °F 93% 30.11 in 10.0 mi WSW 8.1 mph - N/A   Clear
6:35 AM 26.6 °F 19.1 °F 24.8 °F 93% 30.12 in 10.0 mi WSW 6.9 mph - N/A   Clear
6:55 AM 26.6 °F 19.1 °F 23.0 °F 86% 30.12 in 10.0 mi SW 6.9 mph - N/A   Clear
7:15 AM 26.6 °F 19.1 °F 21.2 °F 80% 30.13 in 10.0 mi SW 6.9 mph - N/A   Clear
7:55 AM 24.8 °F 19.1 °F 23.0 °F 93% 30.13 in 10.0 mi SW 4.6 mph - N/A   Clear
8:35 AM 28.4 °F 24.6 °F 24.8 °F 86% 30.13 in 10.0 mi South 3.5 mph - N/A   Clear
8:55 AM 30.2 °F 26.7 °F 26.6 °F 86% 30.14 in 10.0 mi SSW 3.5 mph - N/A   Clear
9:15 AM 33.8 °F 27.0 °F 26.6 °F 75% 30.14 in 10.0 mi South 8.1 mph - N/A   Clear
9:35 AM 35.6 °F 30.7 °F 26.6 °F 70% 30.13 in 10.0 mi SSW 5.8 mph - N/A   Clear
9:55 AM 39.2 °F 34.2 °F 26.6 °F 61% 30.13 in 10.0 mi SSW 6.9 mph - N/A   Clear
10:15 AM 41.0 °F 36.4 °F 26.6 °F 57% 30.12 in 10.0 mi SSW 6.9 mph - N/A   Clear
10:35 AM 42.8 °F 39.3 °F 26.6 °F 53% 30.12 in 10.0 mi SSW 5.8 mph - N/A   Clear
10:55 AM 46.4 °F 42.4 °F 24.8 °F 43% 30.13 in 10.0 mi WSW 8.1 mph - N/A   Clear
11:15 AM 46.4 °F 41.9 °F 24.8 °F 43% 30.13 in 10.0 mi SW 9.2 mph 16.1 mph N/A   Clear
11:55 AM 50.0 °F - 21.2 °F 32% 30.11 in 10.0 mi SW 15.0 mph 18.4 mph N/A   Clear
12:15 PM 51.8 °F - 19.4 °F 28% 30.10 in 10.0 mi SW 17.3 mph - N/A   Partly Cloudy
12:35 PM 51.8 °F - 21.2 °F 30% 30.09 in 10.0 mi WSW 16.1 mph 20.7 mph N/A   Clear
12:55 PM 51.8 °F - 21.2 °F 30% 30.08 in 10.0 mi WSW 13.8 mph 20.7 mph N/A   Clear
1:15 PM 53.6 °F - 21.2 °F 28% 30.07 in 10.0 mi WSW 13.8 mph 20.7 mph N/A   Clear
1:35 PM 53.6 °F - 21.2 °F 28% 30.05 in 10.0 mi SW 15.0 mph 23.0 mph N/A   Clear
1:55 PM 55.4 °F - 21.2 °F 26% 30.04 in 10.0 mi WSW 15.0 mph 20.7 mph N/A   Clear
2:15 PM 55.4 °F - 21.2 °F 26% 30.03 in 10.0 mi WSW 12.7 mph 20.7 mph N/A   Partly Cloudy
2:35 PM 55.4 °F - 23.0 °F 29% 30.02 in 10.0 mi SSW 11.5 mph 18.4 mph N/A   Mostly Cloudy
2:55 PM 55.4 °F - 23.0 °F 29% 30.01 in 10.0 mi SW 13.8 mph 19.6 mph N/A   Scattered Clouds
3:15 PM 57.2 °F - 24.8 °F 29% 30.00 in 10.0 mi SW 16.1 mph 21.9 mph N/A   Clear
3:35 PM 57.2 °F - 24.8 °F 29% 29.99 in 10.0 mi SW 11.5 mph - N/A   Clear
3:55 PM 59.0 °F - 24.8 °F 27% 29.98 in 10.0 mi SW 16.1 mph 24.2 mph N/A   Clear
4:15 PM 59.0 °F - 26.6 °F 29% 29.97 in 10.0 mi SW 13.8 mph - N/A   Clear
4:35 PM 60.8 °F - 26.6 °F 27% 29.96 in 10.0 mi WSW 17.3 mph 21.9 mph N/A   Clear
4:55 PM 60.8 °F - 26.6 °F 27% 29.95 in 10.0 mi SW 15.0 mph 20.7 mph N/A   Clear
5:15 PM 60.8 °F - 26.6 °F 27% 29.94 in 10.0 mi SW 12.7 mph - N/A   Clear
5:35 PM 60.8 °F - 28.4 °F 29% 29.93 in 10.0 mi SW 15.0 mph 20.7 mph N/A   Clear
5:55 PM 60.8 °F - 28.4 °F 29% 29.92 in 10.0 mi SW 12.7 mph - N/A   Clear
6:15 PM 59.0 °F - 30.2 °F 34% 29.92 in 10.0 mi SSW 9.2 mph - N/A   Clear
6:35 PM 57.2 °F - 28.4 °F 33% 29.91 in 10.0 mi South 9.2 mph - N/A   Clear
6:55 PM 55.4 °F - 28.4 °F 36% 29.91 in 10.0 mi South 8.1 mph - N/A   Clear
7:15 PM 53.6 °F - 28.4 °F 38% 29.90 in 10.0 mi SSE 6.9 mph - N/A   Clear
7:35 PM 53.6 °F - 28.4 °F 38% 29.90 in 10.0 mi SSE 9.2 mph - N/A   Clear
7:55 PM 53.6 °F - 28.4 °F 38% 29.90 in 10.0 mi SSE 9.2 mph - N/A   Clear
8:15 PM 51.8 °F - 28.4 °F 41% 29.89 in 10.0 mi SSE 10.4 mph - N/A   Clear
8:35 PM 51.8 °F - 28.4 °F 41% 29.89 in 10.0 mi SSE 9.2 mph - N/A   Clear
8:55 PM 51.8 °F - 30.2 °F 44% 29.89 in 10.0 mi South 9.2 mph - N/A   Clear
9:15 PM 51.8 °F - 28.4 °F 41% 29.88 in 10.0 mi South 10.4 mph - N/A   Clear
9:35 PM 50.0 °F - 28.4 °F 43% 29.87 in 10.0 mi South 8.1 mph - N/A   Clear
9:55 PM 51.8 °F - 30.2 °F 44% 29.87 in 10.0 mi South 6.9 mph - N/A   Clear
10:15 PM 50.0 °F - 30.2 °F 47% 29.87 in 10.0 mi South 8.1 mph - N/A   Clear
10:35 PM 50.0 °F - 30.2 °F 47% 29.86 in 10.0 mi South 11.5 mph - N/A   Clear
10:55 PM 50.0 °F - 30.2 °F 47% 29.86 in 10.0 mi South 12.7 mph - N/A   Clear
11:15 PM 48.2 °F - 30.2 °F 50% 29.86 in 10.0 mi South 9.2 mph - N/A   Clear
11:35 PM 48.2 °F - 30.2 °F 50% 29.85 in 10.0 mi South 9.2 mph - N/A   Clear
11:55 PM 48.2 °F - 32.0 °F 54% 29.84 in 10.0 mi South 9.2 mph - N/A   Clear